Location: Unspecified
(41.9000°N, 12.4830°E)
Time: 17:58:39
(UTC+02:00)

ISS - Pass Details

Date: 18 September 2017
Orbit: 401 x 407 km, 51.6° (Epoch: 25 September)

Event Time Altitude Azimuth Distance (km) Brightness Sun altitude
Exits shadow 04:22:28 19° 36° (NE) 1,043 -1.1 -27.5°
Drops below altitude 10° 04:24:17 10° 68° (ENE) 1,470 0.0 -27.2°
Sets 04:26:43 0° 85° (E) 2,329 1.0 -26.8°
